Dewpoint
53 53 53 53 52 52 52 50 48 46 46 46 46 45 45 45 45 44 45 48 46 44 44 44 43 44 43 44 48 49 49 49 49 50 53 56 60 62 63 63 63 62 62
53 53 53 53 52 51 50 48 48 46 46 45 46 46 46 46 45 45 47 45 44 44 44 43 42 43 43 43 44 46 47 48 48 48 50 51 55 62 62 61 62 62 61
53 53 53 53 51 51 49 48 47 46 45 45 46 45 45 44 45 46 45 45 44 43 42 41 41 43 42 42 43 45 46 48 48 48 48 50 54 61 60 61 61 61 62
53 53 53 52 52 50 49 48 47 46 45 45 45 44 44 43 43 42 43 42 42 42 42 42 42 42 43 43 44 44 45 45 46 47 47 47 50 57 59 59 58 60 60
52 53 53 53 51 49 48 47 46 45 46 45 43 43 42 43 42 41 40 40 40 40 41 41 41 44 46 46 47 45 44 44 45 45 45 46 46 48 50 54 57 59 59
52 52 53 51 49 48 46 45 45 45 43 42 42 41 40 42 44 43 41 39 39 39 39 39 40 44 45 45 46 48 49 44 44 44 45 46 47 46 48 48 54 56 56
53 53 50 48 45 44 44 44 44 42 41 40 40 39 40 40 42 42 43 40 39 39 38 38 40 43 41 40 44 45 47 48 49 48 47 49 47 46 44 44 47 51 54
44 43 43 42 42 41 43 42 42 41 39 39 39 39 39 39 42 41 42 39 38 38 37 39 41 40 39 39 39 38 39 44 44 43 45 44 43 43 44 45 46 50 56
45 46 44 44 44 44 42 40 40 38 37 37 37 37 37 37 40 41 39 36 36 38 36 39 41 39 40 40 38 37 37 38 40 42 42 42 41 41 43 44 45 47 49
45 46 45 45 44 42 40 37 37 37 36 37 36 36 37 37 38 39 38 38 39 38 33 34 42 39 39 39 38 38 36 36 37 38 37 38 39 39 43 45 45 45 49
45 44 43 43 42 40 38 37 37 36 35 34 33 33 33 36 35 38 38 37 35 33 33 33 35 39 39 39 39 38 37 37 37 37 37 37 37 37 38 40 44 47 47
43 42 41 40 39 35 34 34 34 33 33 32 32 32 34 34 37 38 38 39 39 39 38 38 39 39 39 40 40 39 38 38 36 36 36 36 36 37 38 39 43 46 50
40 38 37 35 34 34 33 33 33 33 33 32 33 33 34 35 36 38 38 38 40 40 40 40 39 39 39 40 40 39 39 35 35 35 36 36 37 38 38 40 42 43 46
36 35 36 36 35 35 36 36 36 36 36 35 36 35 35 35 35 36 36 38 39 39 38 37 39 38 39 39 39 38 35 35 34 35 36 38 38 39 39 40 40 41 44
35 35 35 35 34 34 35 35 36 36 37 35 35 35 35 36 36 37 37 37 37 38 39 38 37 37 37 36 36 35 35 35 35 36 35 36 40 40 39 40 40 42 43
34 34 34 33 34 33 33 33 37 37 37 37 36 36 35 36 36 36 36 36 36 36 36 36 37 37 37 36 35 35 35 35 35 34 35 36 39 41 39 40 40 41 41
33 33 34 36 33 33 33 33 31 32 34 34 35 35 35 35 35 35 34 34 34 35 34 35 36 36 36 36 36 35 35 35 35 35 36 36 37 38 41 41 40 41 42
34 37 34 36 35 35 34 34 33 32 32 32 34 35 35 35 35 33 35 35 33 34 34 35 36 36 37 36 36 36 37 36 36 36 36 37 37 38 39 40 43 41 42
35 36 36 35 36 36 35 35 33 33 32 33 32 34 34 35 34 33 34 33 33 32 34 35 36 37 37 38 38 38 37 37 37 37 38 38 39 41 40 41 42 40 40
35 37 36 33 32 33 34 33 34 34 33 33 33 33 34 33 32 32 33 33 33 33 33 34 35 36 37 37 38 38 37 38 38 38 38 39 39 40 39 39 41 42 42
33 32 32 30 30 31 34 33 33 34 33 33 32 34 33 32 32 32 32 31 31 32 32 34 34 34 35 37 37 38 38 38 38 38 39 38 39 40 40 41 41 43 44
31 31 31 30 30 30 31 33 33 33 33 33 33 33 32 33 32 31 31 31 31 32 32 34 34 35 36 37 37 37 38 38 38 38 39 38 38 39 40 41 42 43 44
32 31 30 30 30 30 29 30 31 32 32 33 32 32 32 31 31 31 31 32 32 32 33 33 33 33 34 35 38 38 37 37 38 38 38 39 38 39 40 40 40 42 43
32 31 30 30 30 29 28 28 28 30 31 32 31 32 31 31 31 31 31 32 32 32 32 32 33 34 34 34 35 38 37 38 38 37 38 39 40 39 41 42 42 42 43
32 31 30 30 28 28 28 27 27 28 30 30 30 30 30 30 30 31 31 31 31 31 31 32 32 34 35 35 34 35 35 33 35 35 38 39 39 39 41 42 42 43 43
31 30 29 29 28 28 27 26 26 26 28 29 29 29 30 30 30 30 30 30 30 30 31 32 33 35 35 35 36 34 34 33 34 33 38 39 39 40 41 40 41 41 43
Lifted_Index
5 5 5 5 5 6 6 8 9 9 10 9 9 9 10 11 12 12 12 11 12 12 12 12 13 13 13 13 12 10 8 8 7 7 6 5 2 -0 -0 -0 -0 0 1
4 4 5 5 5 6 6 7 8 9 9 9 9 9 10 11 12 13 12 12 12 12 13 13 13 13 14 13 12 11 10 8 8 7 7 6 3 1 -0 -0 -0 0 0
4 4 5 5 5 5 6 6 7 8 8 8 9 9 9 11 12 13 13 13 13 13 13 14 14 14 13 13 12 11 11 9 8 8 8 7 5 3 1 -0 -0 -0 -0
3 3 4 4 4 4 4 5 5 6 7 7 8 8 9 11 13 13 14 13 13 13 14 14 14 14 13 11 11 10 10 9 8 8 7 7 7 5 3 1 0 -0 -0
2 3 3 3 3 3 3 3 4 4 5 6 7 7 8 10 12 14 14 14 14 13 14 14 14 13 12 10 10 9 9 8 8 7 7 7 7 6 5 3 2 1 0
1 2 2 2 2 2 2 2 3 4 4 5 7 7 9 11 13 14 14 14 14 14 14 14 13 12 11 10 9 9 8 8 8 8 7 7 7 6 6 5 4 2 2
1 1 2 2 2 2 2 2 3 4 5 6 6 8 10 12 14 14 15 14 14 14 13 13 13 12 11 11 10 10 9 9 8 8 8 8 7 7 6 6 5 4 3
1 1 2 2 2 2 2 3 3 4 5 6 8 10 12 14 15 15 15 14 14 13 13 13 13 12 12 12 11 11 10 10 9 9 9 9 8 8 7 6 6 5 4
1 1 3 3 3 3 3 4 4 5 7 9 11 13 14 15 15 14 14 14 13 13 13 13 13 13 13 13 12 12 11 11 10 10 10 10 9 9 8 7 6 5 5
2 4 5 5 5 5 5 6 7 8 10 13 14 15 16 15 14 14 14 13 13 13 12 12 13 13 13 13 13 12 12 11 11 11 10 10 10 10 9 8 7 6 5
5 6 7 7 7 8 9 9 11 12 14 15 15 15 15 14 14 13 13 13 13 13 12 12 13 13 13 13 13 13 12 12 12 11 10 10 10 10 10 10 9 7 6
8 9 10 10 11 12 12 13 13 14 14 14 14 13 13 13 13 13 13 12 12 12 12 12 12 13 13 13 13 13 13 13 12 11 10 10 10 11 11 11 10 9 8
11 12 13 13 14 14 14 14 13 13 13 12 12 12 12 12 12 12 12 12 12 11 11 11 12 12 13 13 13 13 13 13 12 11 10 11 11 11 11 11 11 10 9
13 14 14 14 14 14 14 13 12 12 12 12 11 11 11 11 12 12 12 12 12 11 11 11 11 11 12 12 13 13 13 13 11 11 10 11 11 11 11 11 11 10 9
13 13 13 13 13 13 13 12 13 13 13 12 12 11 11 11 12 12 13 12 12 11 11 10 10 10 11 12 12 13 13 13 12 11 11 11 12 11 11 11 11 10 9
12 12 12 13 12 12 12 12 12 13 13 12 12 12 12 12 13 13 13 13 12 11 10 9 9 9 10 11 12 13 13 13 12 11 11 12 12 12 11 11 11 10 9
12 12 12 12 12 12 11 11 11 11 12 12 12 12 12 13 13 13 13 12 12 11 10 9 9 10 11 12 13 13 13 13 13 12 12 12 13 13 12 11 11 11 10
13 13 13 12 12 12 12 11 11 11 10 10 11 11 11 12 12 12 12 12 11 10 10 10 10 11 12 13 13 13 13 13 13 13 13 13 13 13 13 12 12 11 10
14 14 14 14 13 12 12 12 11 11 10 10 10 10 10 11 11 11 11 10 10 10 11 11 12 13 14 14 14 14 13 13 13 13 13 14 14 13 13 13 12 11 11
15 15 15 15 14 13 12 12 11 11 10 10 10 10 10 10 9 10 10 10 10 10 11 12 13 14 15 15 15 15 14 13 13 13 13 14 14 14 13 13 13 12 11
15 15 16 16 15 14 12 11 11 11 10 10 10 10 10 10 9 9 9 10 11 12 12 13 14 15 16 16 16 16 15 14 14 13 13 13 13 13 13 13 13 12 12
15 15 15 15 14 14 13 12 11 11 11 10 10 10 10 10 10 10 10 11 12 13 14 14 15 16 16 17 17 17 16 15 15 14 14 13 13 13 13 13 13 12 12
15 15 15 15 14 14 13 12 11 11 11 11 11 10 10 10 10 10 10 11 12 13 14 15 15 16 16 17 17 17 17 17 16 15 14 14 13 13 13 13 13 12 12
14 14 15 15 14 14 13 12 12 11 11 11 11 11 11 10 10 10 11 11 12 13 14 15 15 16 16 17 17 17 18 18 17 17 15 14 14 13 13 13 13 12 12
14 14 14 15 14 14 13 13 12 11 11 11 11 11 11 11 10 10 11 12 12 13 13 14 15 15 16 17 17 18 18 19 18 18 17 15 14 13 13 13 12 12 12
14 14 14 15 15 14 13 13 12 11 11 11 12 12 11 11 10 10 11 12 12 12 13 14 15 15 16 17 17 18 18 19 19 18 17 16 15 14 13 13 12 12 11